Back to catalog

STARLINK-11227

AliveCommunicationsVLEO
NORAD 60303·PAYLOAD·🇺🇸 United States

Launched Jul 28, 2024 from Vandenberg Space Force Base

Loading…

Next Passes (next 24 hours)

TLE

FreshSource: CelesTrak SupGP

Epoch: Sep 14, 2026, 14:41 UTC

1 60303C 24133C   26257.61229167  .00073001  00000+0  60129-3 0  2579
2 60303  53.1563 295.0071 0001245  70.4763 344.0154 15.69674182    11

Track STARLINK-11227 in real time with AllMySat

Download on the App Store